• In Deutschland
  • Länderverzeichnis
  • Für 7 Tage
  • Wassertemperatur
  • Satellitenkarten
  • Wetterkarte
  • Widgets
  • user-avatar
    Anmelden

    Stündliche Wetter Stepanakert

    Heute, 30 April, Sonntag

    Zeit Temperatur Niederschläge Wind Luftdruck Luftfeuchtigkeit
    00:00 +8°C° 0 mm 1 m/S 692 mmHg 90%
    01:00 +8°C° 0 mm 1 m/S 692 mmHg 90%
    02:00 +8°C° 0 mm 1 m/S 692 mmHg 90%
    03:00 +7°C° 0 mm 1 m/S 692 mmHg 89%
    04:00 +8°C° 0 mm 1 m/S 692 mmHg 86%
    05:00 +9°C° 0 mm 1 m/S 692 mmHg 82%
    06:00 +11°C° 0 mm 1 m/S 693 mmHg 78%
    07:00 +13°C° 0 mm 1 m/S 693 mmHg 70%
    08:00 +15°C° 0 mm 2 m/S 693 mmHg 61%
    09:00 +18°C° 0 mm 2 m/S 694 mmHg 51%
    10:00 +19°C° 0,1 mm 2 m/S 694 mmHg 49%
    11:00 +20°C° 0,1 mm 2 m/S 694 mmHg 46%
    12:00 +21°C° 0,1 mm 3 m/S 693 mmHg 43%
    13:00 +23°C° 0,2 mm 2 m/S 693 mmHg 43%
    14:00 +23°C° 0,2 mm 2 m/S 693 mmHg 43%
    15:00 +23°C° 0,2 mm 2 m/S 693 mmHg 43%
    16:00 +21°C° 0,1 mm 2 m/S 693 mmHg 50%
    17:00 +21°C° 0,1 mm 1 m/S 692 mmHg 57%
    18:00 +19°C° 0,1 mm 1 m/S 692 mmHg 64%
    19:00 +16°C° 0 mm 1 m/S 692 mmHg 69%
    20:00 +14°C° 0 mm 1 m/S 692 mmHg 74%
    21:00 +12°C° 0 mm 1 m/S 692 mmHg 80%
    22:00 +12°C° 0 mm 1 m/S 692 mmHg 79%
    23:00 +12°C° 0 mm 1 m/S 692 mmHg 79%

    Morgen, 1 Mai, Montag

    Zeit Temperatur Niederschläge Wind Luftdruck Luftfeuchtigkeit
    00:00 +12°C° 0 mm 2 m/S 692 mmHg 78%
    01:00 +12°C° 0 mm 2 m/S 692 mmHg 77%
    02:00 +10°C° 0 mm 2 m/S 692 mmHg 75%
    03:00 +10°C° 0 mm 2 m/S 692 mmHg 74%
    04:00 +12°C° 0 mm 2 m/S 692 mmHg 70%
    05:00 +12°C° 0 mm 2 m/S 692 mmHg 66%
    06:00 +13°C° 0 mm 2 m/S 693 mmHg 62%
    07:00 +16°C° 0 mm 2 m/S 693 mmHg 54%
    08:00 +18°C° 0 mm 2 m/S 694 mmHg 46%
    09:00 +21°C° 0 mm 2 m/S 694 mmHg 39%
    10:00 +23°C° 0 mm 2 m/S 694 mmHg 37%
    11:00 +24°C° 0 mm 2 m/S 694 mmHg 35%
    12:00 +25°C° 0 mm 2 m/S 694 mmHg 33%
    13:00 +25°C° 0 mm 2 m/S 693 mmHg 34%
    14:00 +26°C° 0 mm 2 m/S 693 mmHg 34%
    15:00 +26°C° 0 mm 2 m/S 693 mmHg 35%
    16:00 +24°C° 0 mm 2 m/S 693 mmHg 42%
    17:00 +23°C° 0 mm 1 m/S 693 mmHg 50%
    18:00 +21°C° 0 mm 1 m/S 692 mmHg 57%
    19:00 +19°C° 0 mm 1 m/S 692 mmHg 65%
    20:00 +16°C° 0 mm 1 m/S 692 mmHg 72%
    21:00 +14°C° 0 mm 1 m/S 692 mmHg 79%
    22:00 +14°C° 0 mm 1 m/S 692 mmHg 79%
    23:00 +14°C° 0 mm 1 m/S 692 mmHg 78%

    übermorgen, 2 Mai, Dienstag

    Zeit Temperatur Niederschläge Wind Luftdruck Luftfeuchtigkeit
    00:00 +13°C° 0 mm 1 m/S 693 mmHg 78%
    01:00 +14°C° 0,1 mm 1 m/S 693 mmHg 77%
    02:00 +14°C° 0,1 mm 1 m/S 693 mmHg 75%
    03:00 +14°C° 0,1 mm 1 m/S 693 mmHg 74%
    04:00 +14°C° 0,1 mm 1 m/S 693 mmHg 72%
    05:00 +14°C° 0,1 mm 1 m/S 693 mmHg 71%
    06:00 +15°C° 0,1 mm 1 m/S 693 mmHg 70%
    07:00 +18°C° 0 mm 1 m/S 693 mmHg 62%
    08:00 +19°C° 0 mm 2 m/S 694 mmHg 54%
    09:00 +21°C° 0 mm 2 m/S 694 mmHg 46%
    10:00 +23°C° 0 mm 2 m/S 694 mmHg 44%
    11:00 +23°C° 0 mm 2 m/S 693 mmHg 42%
    12:00 +24°C° 0 mm 3 m/S 693 mmHg 39%
    13:00 +24°C° 0,1 mm 3 m/S 693 mmHg 41%
    14:00 +24°C° 0,1 mm 2 m/S 692 mmHg 42%
    15:00 +24°C° 0,1 mm 2 m/S 692 mmHg 43%
    16:00 +23°C° 0,2 mm 2 m/S 692 mmHg 50%
    17:00 +20°C° 0,2 mm 2 m/S 692 mmHg 57%
    18:00 +20°C° 0,2 mm 1 m/S 692 mmHg 65%
    19:00 +19°C° 0,6 mm 1 m/S 692 mmHg 69%
    20:00 +17°C° 0,6 mm 2 m/S 692 mmHg 74%
    21:00 +16°C° 0,6 mm 2 m/S 692 mmHg 78%
    22:00 +15°C° 0,1 mm 1 m/S 691 mmHg 79%
    23:00 +14°C° 0,1 mm 1 m/S 691 mmHg 80%

    3 Mai, Mittwoch

    Zeit Temperatur Niederschläge Wind Luftdruck Luftfeuchtigkeit
    00:00 +13°C° 0,1 mm 1 m/S 690 mmHg 81%
    01:00 +13°C° 0 mm 1 m/S 690 mmHg 81%
    02:00 +13°C° 0 mm 1 m/S 690 mmHg 81%
    03:00 +12°C° 0 mm 1 m/S 689 mmHg 81%
    04:00 +13°C° 0 mm 1 m/S 690 mmHg 79%
    05:00 +14°C° 0 mm 1 m/S 690 mmHg 77%
    06:00 +14°C° 0 mm 1 m/S 690 mmHg 75%
    07:00 +16°C° 0 mm 2 m/S 691 mmHg 67%
    08:00 +19°C° 0 mm 2 m/S 691 mmHg 58%
    09:00 +21°C° 0 mm 2 m/S 691 mmHg 49%
    10:00 +23°C° 0,1 mm 2 m/S 691 mmHg 46%
    11:00 +24°C° 0,1 mm 3 m/S 691 mmHg 43%
    12:00 +25°C° 0,1 mm 3 m/S 690 mmHg 40%
    13:00 +25°C° 0,4 mm 3 m/S 690 mmHg 40%
    14:00 +25°C° 0,4 mm 3 m/S 690 mmHg 40%
    15:00 +25°C° 0,4 mm 2 m/S 689 mmHg 40%
    16:00 +24°C° 0,1 mm 2 m/S 689 mmHg 46%
    17:00 +23°C° 0,1 mm 2 m/S 689 mmHg 52%
    18:00 +22°C° 0,1 mm 1 m/S 689 mmHg 57%
    19:00 +20°C° 0,1 mm 1 m/S 689 mmHg 63%
    20:00 +18°C° 0,1 mm 1 m/S 689 mmHg 68%
    21:00 +15°C° 0,1 mm 1 m/S 689 mmHg 74%
    22:00 +15°C° 0 mm 1 m/S 689 mmHg 73%
    23:00 +14°C° 0 mm 1 m/S 689 mmHg 73%

    4 Mai, Donnerstag

    Zeit Temperatur Niederschläge Wind Luftdruck Luftfeuchtigkeit
    00:00 +14°C° 0 mm 1 m/S 689 mmHg 72%
    01:00 +14°C° 0,1 mm 1 m/S 689 mmHg 72%
    02:00 +14°C° 0,1 mm 1 m/S 689 mmHg 72%
    03:00 +14°C° 0,1 mm 1 m/S 689 mmHg 71%
    04:00 +14°C° 0 mm 1 m/S 689 mmHg 70%
    05:00 +15°C° 0 mm 1 m/S 689 mmHg 68%
    06:00 +15°C° 0 mm 1 m/S 689 mmHg 67%
    07:00 +18°C° 0 mm 1 m/S 690 mmHg 60%
    08:00 +19°C° 0 mm 2 m/S 690 mmHg 53%
    09:00 +20°C° 0 mm 2 m/S 691 mmHg 46%
    10:00 +21°C° 0,2 mm 2 m/S 691 mmHg 45%
    11:00 +23°C° 0,2 mm 1 m/S 691 mmHg 43%
    12:00 +24°C° 0,2 mm 1 m/S 691 mmHg 42%
    13:00 +24°C° 0,2 mm 1 m/S 690 mmHg 42%
    14:00 +24°C° 0,2 mm 1 m/S 690 mmHg 42%
    15:00 +24°C° 0,2 mm 1 m/S 690 mmHg 42%
    16:00 +23°C° 0,1 mm 1 m/S 690 mmHg 48%
    17:00 +22°C° 0,1 mm 1 m/S 690 mmHg 54%
    18:00 +21°C° 0,1 mm 1 m/S 690 mmHg 59%
    19:00 +19°C° 0,2 mm 1 m/S 690 mmHg 65%
    20:00 +16°C° 0,2 mm 1 m/S 690 mmHg 71%
    21:00 +14°C° 0,2 mm 1 m/S 690 mmHg 76%
    22:00 +13°C° 0 mm 1 m/S 690 mmHg 76%
    23:00 +13°C° 0 mm 1 m/S 690 mmHg 75%

    5 Mai, Freitag

    Zeit Temperatur Niederschläge Wind Luftdruck Luftfeuchtigkeit
    00:00 +13°C° 0 mm 2 m/S 690 mmHg 75%
    01:00 +13°C° 0 mm 2 m/S 690 mmHg 76%
    02:00 +12°C° 0 mm 2 m/S 690 mmHg 76%
    03:00 +12°C° 0 mm 2 m/S 690 mmHg 77%
    04:00 +13°C° 0 mm 2 m/S 690 mmHg 75%
    05:00 +13°C° 0 mm 1 m/S 691 mmHg 73%
    06:00 +14°C° 0 mm 1 m/S 691 mmHg 70%
    07:00 +16°C° 0 mm 1 m/S 691 mmHg 64%
    08:00 +18°C° 0 mm 2 m/S 692 mmHg 57%
    09:00 +21°C° 0 mm 2 m/S 692 mmHg 51%
    10:00 +21°C° 0,2 mm 2 m/S 692 mmHg 49%
    11:00 +23°C° 0,2 mm 2 m/S 692 mmHg 48%
    12:00 +24°C° 0,2 mm 2 m/S 691 mmHg 47%
    13:00 +24°C° 0,8 mm 2 m/S 691 mmHg 49%
    14:00 +24°C° 0,8 mm 2 m/S 690 mmHg 50%
    15:00 +24°C° 0,8 mm 2 m/S 690 mmHg 52%
    16:00 +23°C° 0,5 mm 2 m/S 690 mmHg 57%
    17:00 +21°C° 0,5 mm 2 m/S 690 mmHg 63%
    18:00 +20°C° 0,5 mm 2 m/S 690 mmHg 68%
    19:00 +18°C° 0,3 mm 2 m/S 690 mmHg 75%
    20:00 +15°C° 0,3 mm 1 m/S 690 mmHg 81%
    21:00 +13°C° 0,3 mm 1 m/S 690 mmHg 87%
    22:00 +13°C° 0 mm 1 m/S 690 mmHg 88%
    23:00 +12°C° 0 mm 1 m/S 690 mmHg 88%
    Mehr zeigen